Location: Villingen
(48.0639°N, 8.4609°E)
Time: 00:18:32
(UTC+02:00)

ISS - Visible Passes

Search period start: 22 October 2019 00:00
Search period end: 31 October 2019 23:00
Orbit: 411 x 421 km, 51.6° (Epoch: 21 October)

Date Brightness Start Highest point End Pass type
(mag) Time Alt. Az. Time Alt. Az. Time Alt. Az.
24 Oct -0.8 06:49:37 10° S 06:51:29 14° SE 06:53:21 10° ESE visible
26 Oct -2.0 06:47:39 10° SSW 06:50:40 31° SE 06:53:42 10° E visible
27 Oct -1.5 05:00:46 16° S 05:02:12 20° SE 05:04:47 10° E visible
28 Oct -0.6 04:14:37 12° ESE 04:14:37 12° ESE 04:15:27 10° ESE visible
28 Oct -3.5 05:47:32 17° SW 05:49:59 66° SSE 05:53:21 10° ENE visible
29 Oct -2.9 05:01:15 43° SSE 05:01:24 44° SSE 05:04:38 10° ENE visible
30 Oct -0.8 04:14:49 17° E 04:14:49 17° E 04:15:50 10° E visible
30 Oct -3.7 05:47:44 27° W 05:49:25 69° NNW 05:52:47 10° ENE visible
31 Oct -3.4 05:01:13 63° ENE 05:01:13 63° ENE 05:04:07 10° ENE visible
31 Oct -3.1 06:34:26 10° WNW 06:37:41 44° N 06:40:56 10° ENE visible
